Time,TemperatureF,DewpointF,PressureIn,WindDirection,WindDirectionDegrees,WindSpeedMPH,WindSpeedGustMPH,Humidity,HourlyPrecipIn,Conditions,Clouds,dailyrainin,SoftwareType,DateUTC
2013-07-29 00:02:00,63.0,43.0,-100.00,SSW,196,5.0,7.0,48,-99.99,,,-99.99,,2013-07-29 07:02:00,
2013-07-29 00:12:00,63.0,43.0,-100.00,SSW,196,5.0,7.0,48,-99.99,,,-99.99,,2013-07-29 07:12:00,
2013-07-29 00:22:00,63.0,42.0,-100.00,SSW,208,4.0,6.0,47,-99.99,,,-99.99,,2013-07-29 07:22:00,
2013-07-29 00:33:00,63.0,42.0,-100.00,SSW,208,4.0,6.0,47,-99.99,,,-99.99,,2013-07-29 07:33:00,
2013-07-29 00:43:00,61.0,41.0,-100.00,SW,226,2.0,4.0,48,-99.99,,,-99.99,,2013-07-29 07:43:00,
2013-07-29 00:53:00,61.0,41.0,-100.00,SW,226,2.0,4.0,48,-99.99,,,-99.99,,2013-07-29 07:53:00,
2013-07-29 01:02:00,60.0,41.0,-100.00,West,263,0.0,2.0,50,-99.99,,,-99.99,,2013-07-29 08:02:00,
2013-07-29 01:12:00,60.0,42.0,-100.00,NNW,328,1.0,2.0,52,-99.99,,,-99.99,,2013-07-29 08:12:00,
2013-07-29 01:22:00,60.0,42.0,-100.00,WSW,245,1.0,3.0,52,-99.99,,,-99.99,,2013-07-29 08:22:00,
2013-07-29 01:33:00,60.0,40.0,-100.00,South,180,1.0,3.0,48,-99.99,,,-99.99,,2013-07-29 08:33:00,
2013-07-29 01:52:00,60.0,40.0,-100.00,ENE,64,1.0,3.0,48,-99.99,,,-99.99,,2013-07-29 08:52:00,
2013-07-29 02:12:00,61.0,39.0,-100.00,SSW,194,1.0,4.0,44,-99.99,,,-99.99,,2013-07-29 09:12:00,
2013-07-29 02:22:00,61.0,39.0,-100.00,SSW,194,1.0,4.0,44,-99.99,,,-99.99,,2013-07-29 09:22:00,
2013-07-29 02:33:00,59.0,38.0,-100.00,South,191,1.0,2.0,45,-99.99,,,-99.99,,2013-07-29 09:33:00,
2013-07-29 02:43:00,59.0,38.0,-100.00,ENE,76,1.0,3.0,45,-99.99,,,-99.99,,2013-07-29 09:43:00,
2013-07-29 03:13:00,60.0,37.0,-100.00,East,101,1.0,2.0,43,-99.99,,,-99.99,,2013-07-29 10:13:00,
2013-07-29 03:23:00,58.0,37.0,-100.00,SSE,154,0.0,1.0,46,-99.99,,,-99.99,,2013-07-29 10:23:00,
2013-07-29 03:44:00,60.0,39.0,-100.00,ESE,110,1.0,2.0,45,-99.99,,,-99.99,,2013-07-29 10:44:00,
2013-07-29 03:53:00,60.0,39.0,-100.00,South,185,0.0,1.0,46,-99.99,,,-99.99,,2013-07-29 10:53:00,
2013-07-29 04:12:00,59.0,39.0,-100.00,WNW,298,0.0,1.0,48,-99.99,,,-99.99,,2013-07-29 11:12:00,
2013-07-29 04:22:00,59.0,40.0,-100.00,WNW,299,0.0,1.0,49,-99.99,,,-99.99,,2013-07-29 11:22:00,
2013-07-29 04:34:00,61.0,38.0,-100.00,WNW,297,0.0,1.0,43,-99.99,,,-99.99,,2013-07-29 11:34:00,
2013-07-29 04:44:00,61.0,39.0,-100.00,SE,146,1.0,2.0,44,-99.99,,,-99.99,,2013-07-29 11:44:00,
2013-07-29 05:13:00,60.0,40.0,-100.00,North,-999,0.0,0.0,47,-99.99,,,-99.99,,2013-07-29 12:13:00,
2013-07-29 05:22:00,60.0,40.0,-100.00,North,-999,0.0,0.0,47,-99.99,,,-99.99,,2013-07-29 12:22:00,
2013-07-29 05:44:00,59.0,40.0,-100.00,North,-999,0.0,0.0,50,-99.99,,,-99.99,,2013-07-29 12:44:00,
2013-07-29 06:12:00,59.0,40.0,-100.00,South,171,0.0,1.0,50,-99.99,,,-99.99,,2013-07-29 13:12:00,
2013-07-29 06:33:00,62.0,40.0,-100.00,SE,131,0.0,1.0,44,-99.99,,,-99.99,,2013-07-29 13:33:00,
2013-07-29 06:54:00,62.0,40.0,-100.00,South,187,0.0,2.0,45,-99.99,,,-99.99,,2013-07-29 13:54:00,
2013-07-29 07:12:00,65.0,41.0,-100.00,ENE,73,0.0,1.0,41,-99.99,,,-99.99,,2013-07-29 14:12:00,
2013-07-29 08:02:00,71.0,42.0,-100.00,West,279,1.0,3.0,35,-99.99,,,-99.99,,2013-07-29 15:02:00,
2013-07-29 08:12:00,71.0,42.0,-100.00,West,279,1.0,3.0,35,-99.99,,,-99.99,,2013-07-29 15:12:00,
2013-07-29 08:23:00,72.0,42.0,-100.00,WNW,288,2.0,3.0,34,-99.99,,,-99.99,,2013-07-29 15:23:00,
2013-07-29 08:53:00,73.0,41.0,-100.00,West,272,4.0,9.0,31,-99.99,,,-99.99,,2013-07-29 15:53:00,
2013-07-29 09:34:00,76.0,41.0,-100.00,West,275,5.0,11.0,29,-99.99,,,-99.99,,2013-07-29 16:34:00,
2013-07-29 09:54:00,77.0,41.0,-100.00,West,276,6.0,11.0,28,-99.99,,,-99.99,,2013-07-29 16:54:00,
2013-07-29 10:03:00,78.0,41.0,-100.00,West,262,6.0,11.0,27,-99.99,,,-99.99,,2013-07-29 17:03:00,
2013-07-29 10:12:00,78.0,41.0,-100.00,West,262,6.0,11.0,27,-99.99,,,-99.99,,2013-07-29 17:12:00,
2013-07-29 10:23:00,79.0,41.0,-100.00,West,259,5.0,10.0,26,-99.99,,,-99.99,,2013-07-29 17:23:00,
2013-07-29 10:35:00,79.0,41.0,-100.00,WNW,289,6.0,14.0,26,-99.99,,,-99.99,,2013-07-29 17:35:00,
2013-07-29 10:43:00,79.0,41.0,-100.00,West,271,7.0,14.0,26,-99.99,,,-99.99,,2013-07-29 17:43:00,
2013-07-29 10:54:00,80.0,40.0,-100.00,WSW,252,7.0,13.0,24,-99.99,,,-99.99,,2013-07-29 17:54:00,
2013-07-29 11:02:00,80.0,40.0,-100.00,WSW,252,7.0,13.0,24,-99.99,,,-99.99,,2013-07-29 18:02:00,
2013-07-29 11:12:00,80.0,39.0,-100.00,West,260,8.0,14.0,23,-99.99,,,-99.99,,2013-07-29 18:12:00,
2013-07-29 11:22:00,81.0,39.0,-100.00,WSW,245,7.0,12.0,22,-99.99,,,-99.99,,2013-07-29 18:22:00,
2013-07-29 12:02:00,81.0,37.0,-100.00,WSW,251,7.0,13.0,21,-99.99,,,-99.99,,2013-07-29 19:02:00,
2013-07-29 12:13:00,81.0,37.0,-100.00,WSW,251,7.0,13.0,21,-99.99,,,-99.99,,2013-07-29 19:13:00,
2013-07-29 12:22:00,82.0,37.0,-100.00,WSW,246,6.0,13.0,20,-99.99,,,-99.99,,2013-07-29 19:22:00,
2013-07-29 12:35:00,83.0,38.0,-100.00,SW,222,7.0,16.0,20,-99.99,,,-99.99,,2013-07-29 19:35:00,
2013-07-29 12:44:00,83.0,40.0,-100.00,WSW,244,7.0,15.0,22,-99.99,,,-99.99,,2013-07-29 19:44:00,
2013-07-29 12:53:00,83.0,40.0,-100.00,WSW,244,7.0,15.0,22,-99.99,,,-99.99,,2013-07-29 19:53:00,
2013-07-29 13:12:00,84.0,41.0,-100.00,WSW,258,7.0,17.0,22,-99.99,,,-99.99,,2013-07-29 20:12:00,
2013-07-29 13:33:00,84.0,39.0,-100.00,West,275,7.0,14.0,20,-99.99,,,-99.99,,2013-07-29 20:33:00,
2013-07-29 13:44:00,84.0,36.0,-100.00,West,267,8.0,17.0,18,-99.99,,,-99.99,,2013-07-29 20:44:00,
2013-07-29 14:02:00,85.0,39.0,-100.00,West,259,7.0,13.0,20,-99.99,,,-99.99,,2013-07-29 21:02:00,
2013-07-29 14:13:00,85.0,38.0,-100.00,West,267,8.0,18.0,19,-99.99,,,-99.99,,2013-07-29 21:13:00,
2013-07-29 14:22:00,84.0,39.0,-100.00,West,260,9.0,21.0,20,-99.99,,,-99.99,,2013-07-29 21:22:00,
2013-07-29 14:33:00,85.0,39.0,-100.00,West,264,9.0,15.0,20,-99.99,,,-99.99,,2013-07-29 21:33:00,
2013-07-29 14:53:00,86.0,40.0,-100.00,WSW,258,8.0,15.0,20,-99.99,,,-99.99,,2013-07-29 21:53:00,
2013-07-29 15:12:00,84.0,41.0,-100.00,WSW,257,8.0,18.0,22,-99.99,,,-99.99,,2013-07-29 22:12:00,
2013-07-29 15:33:00,85.0,41.0,-100.00,WSW,257,8.0,14.0,21,-99.99,,,-99.99,,2013-07-29 22:33:00,
2013-07-29 15:43:00,86.0,41.0,-100.00,West,259,7.0,13.0,21,-99.99,,,-99.99,,2013-07-29 22:43:00,
2013-07-29 15:54:00,86.0,41.0,-100.00,West,259,7.0,13.0,21,-99.99,,,-99.99,,2013-07-29 22:54:00,
2013-07-29 16:03:00,85.0,42.0,-100.00,WSW,257,9.0,17.0,22,-99.99,,,-99.99,,2013-07-29 23:03:00,
2013-07-29 16:12:00,86.0,44.0,-100.00,WSW,248,9.0,16.0,23,-99.99,,,-99.99,,2013-07-29 23:12:00,
2013-07-29 16:33:00,85.0,44.0,-100.00,WSW,243,8.0,15.0,24,-99.99,,,-99.99,,2013-07-29 23:33:00,
2013-07-29 16:53:00,84.0,45.0,-100.00,WSW,257,9.0,15.0,26,-99.99,,,-99.99,,2013-07-29 23:53:00,
2013-07-29 17:13:00,85.0,46.0,-100.00,WSW,250,8.0,15.0,26,-99.99,,,-99.99,,2013-07-30 00:13:00,
2013-07-29 17:23:00,83.0,46.0,-100.00,WSW,237,10.0,18.0,27,-99.99,,,-99.99,,2013-07-30 00:23:00,
2013-07-29 17:33:00,83.0,47.0,-100.00,WSW,248,9.0,16.0,28,-99.99,,,-99.99,,2013-07-30 00:33:00,
2013-07-29 17:53:00,82.0,47.0,-100.00,WSW,246,8.0,14.0,30,-99.99,,,-99.99,,2013-07-30 00:53:00,
2013-07-29 18:13:00,81.0,48.0,-100.00,WSW,256,8.0,15.0,32,-99.99,,,-99.99,,2013-07-30 01:13:00,
2013-07-29 18:33:00,80.0,48.0,-100.00,West,259,8.0,16.0,33,-99.99,,,-99.99,,2013-07-30 01:33:00,
2013-07-29 18:53:00,79.0,49.0,-100.00,West,262,7.0,13.0,35,-99.99,,,-99.99,,2013-07-30 01:53:00,
2013-07-29 19:13:00,78.0,50.0,-100.00,WSW,248,6.0,10.0,37,-99.99,,,-99.99,,2013-07-30 02:13:00,
2013-07-29 19:34:00,77.0,50.0,-100.00,WSW,246,6.0,11.0,39,-99.99,,,-99.99,,2013-07-30 02:34:00,
2013-07-29 20:03:00,73.0,50.0,-100.00,WSW,253,4.0,9.0,44,-99.99,,,-99.99,,2013-07-30 03:03:00,
2013-07-29 20:13:00,72.0,50.0,-100.00,WSW,247,4.0,6.0,46,-99.99,,,-99.99,,2013-07-30 03:13:00,
2013-07-29 20:33:00,71.0,50.0,-100.00,WSW,247,4.0,7.0,48,-99.99,,,-99.99,,2013-07-30 03:33:00,
2013-07-29 20:52:00,69.0,50.0,-100.00,WSW,251,4.0,6.0,50,-99.99,,,-99.99,,2013-07-30 03:52:00,
2013-07-29 21:22:00,67.0,49.0,-100.00,SSW,202,2.0,4.0,53,-99.99,,,-99.99,,2013-07-30 04:22:00,
2013-07-29 21:32:00,66.0,48.0,-100.00,SSW,208,3.0,4.0,53,-99.99,,,-99.99,,2013-07-30 04:32:00,
2013-07-29 21:43:00,66.0,49.0,-100.00,SSE,147,2.0,4.0,54,-99.99,,,-99.99,,2013-07-30 04:43:00,
2013-07-29 22:11:00,65.0,49.0,-100.00,SW,215,2.0,3.0,56,-99.99,,,-99.99,,2013-07-30 05:11:00,
2013-07-29 22:22:00,65.0,49.0,-100.00,SW,226,1.0,2.0,56,-99.99,,,-99.99,,2013-07-30 05:22:00,
2013-07-29 22:32:00,65.0,49.0,-100.00,SSW,206,1.0,1.0,57,-99.99,,,-99.99,,2013-07-30 05:32:00,
2013-07-29 22:45:00,64.0,49.0,-100.00,SSW,208,0.0,2.0,58,-99.99,,,-99.99,,2013-07-30 05:45:00,
2013-07-29 23:02:00,64.0,50.0,-100.00,SSW,206,1.0,3.0,60,-99.99,,,-99.99,,2013-07-30 06:02:00,
2013-07-29 23:12:00,63.0,50.0,-100.00,ESE,108,2.0,3.0,62,-99.99,,,-99.99,,2013-07-30 06:12:00,
2013-07-29 23:32:00,63.0,50.0,-100.00,SSE,150,2.0,4.0,63,-99.99,,,-99.99,,2013-07-30 06:32:00,
2013-07-29 23:43:00,62.0,49.0,-100.00,East,82,2.0,3.0,63,-99.99,,,-99.99,,2013-07-30 06:43:00,
2013-07-29 23:52:00,63.0,50.0,-100.00,South,177,1.0,3.0,63,-99.99,,,-99.99,,2013-07-30 06:52:00,